EHI
0 0 0 0 0 0 0 0 0 0 0 0 0 0 0 0 0 0 0 0 0 0 0 0 0 0 0 0 0 0 0 0 0 0 0 0 0 0 0 0 0 0 0
0 0 0 0 0 0 0 0 0 0 0 0 0 0 0 0 0 0 0 0 0 0 0 0 0 0 0 0 0 0 0 0 0 0 0 0 0 0 0 0 0 0 0
0 0 0 0 0 0 0 0 0 0 0 0 0 0 0 0 0 0 0 0 0 0 0 0 0 0 0 0 0 0 0 0 0 0 0 0 0 0 0 0 0 0 0
0 0 0 0 0 0 0 0 0 0 0 0 0 0 0 0 0 0 0 0 0 0 0 0 0 0 0 0 0 0 0 0 0 0 0 0 0 0 0 0 0 0 0
0 0 0 0 0 0 0 0 0 0 0 0 0 0 0 0 0 0 0 0 0 0 0 0 0 0 0 0 0 0 0 0 0 0 0 0 0 0 0 0 0 0 0
0 0 0 0 0 0 0 0 0 0 0 0 0 0 0 0 0 0 0 0 0 0 0 0 0 0 0 0 0 0 0 0 0 0 0 0 0 0 0 0 0 0 0
0 0 0 0 0 0 0 0 0 0 0 0 0 0 0 0 0 0 0 0 0 0 0 0 0 0 0 0 0 0 0 0 0 0 0 0 0 0 0 0 0 0 0
0 0 0 0 0 0 0 0 0 0 0 0 0 0 0 0 0 0 0 0 0 0 0 0 0 0 0 0 0 0 0 0 0 0 0 0 0 0 0 0 0 0 0
0 0 0 0 0 0 0 0 0 0 0 0 0 0 0 0 0 0 0 0 0 0 0 0 0 0 0 0 0 0 0 0 0 0 0 0 0 0 0 0 0 0 0
0 0 0 0 0 0 0 0 0 0 0 0 0 0 0 0 0 0 0 0 0 0 0 0 0 0 0 0 0 0 0 0 0 0 0 0 0 0 0 0 0 0 0
0 0 0 0 0 0 0 0 0 0 0 0 0 0 0 0 0 0 0 0 0 0 0 0 0 0 0 0 0 0 0 0 0 0 0 0 0 0 0 0 0 0 0
0 0 0 0 0 0 0 0 0 0 0 0 0 0 0 0 0 0 0 0 0 0 0 0 0 0 0 0 0 0 0 0 0 0 0 0 0 0 0 0 0 0 0
0 0 0 0 0 0 0 0 0 0 0 0 0 0 0 0 0 0 0 0 0 0 0 0 0 0 0 0 0 0 0 0 0 0 0 0 0 0 0 0 0 0 0
0 0 0 0 0 0 0 0 0 0 0 0 0 0 0 0 0 0 0 0 0 0 0 0 0 0 0 0 0 0 0 0 0 0 0 0 0 0 0 0 0 0 0
0 0 0 0 0 0 0 0 0 0 0 0 0 0 0 0 0 0 0 0 0 0 0 0 0 0 0 0 0 0 0 0 0 0 0 0 0 0 0 0 0 0 0
0 0 0 0 0 0 0 0 0 0 0 0 0 0 0 0 0 0 0 0 0 0 0 0 0 0 0 0 0 0 0 0 0 0 0 0 0 0 0 0 0 0 0
0 0 0 0 0 0 0 0 0 0 0 0 0 0 0 0 0 0 0 0 0 0 0 0 0 0 0 0 0 0 0 0 0 0 0 0 0 0 0 0 0 0 0
0 0 0 0 0 0 0 0 0 0 0 0 0 0 0 0 0 0 0 0 0 0 0 0 0 0 0 0 0 0 0 0 0 0 0 0 0 0 0 0 0 0 0
0 0 0 0 0 0 0 0 0 0 0 0 0 0 0 0 0 0 0 0 0 0 0 0 0 0 0 0 0 0 0 0 0 0 0 0 0 0 0 0 0 0 0
0 0 0 0 0 0 0 0 0 0 0 0 0 0 0 0 0 0 0 0 0 0 0 0 0 0 0 0 0 0 0 0 0 0 0 0 0 0 0 0 0 0 0
0 0 0 0 0 0 0 0 0 0 0 0 0 0 0 0 0 0 0 0 0 0 0 0 0 0 0 0 0 0 0 0 0 0 0 0 0 0 0 0 0 0 0
0 0 0 0 0 0 0 0 0 0 0 0 0 0 0 0 0 0 0 0 0 0 0 0 0 0 0 0 0 0 0 0 0 0 0 0 0 0 0 0 0 0 0
0 0 0 0 0 0 0 0 0 0 0 0 0 0 0 0 0 0 0 0 0 0 0 0 0 0 0 0 0 0 0 0 0 0 0 0 0 0 0 0 0 0 0
0 0 0 0 0 0 0 0 0 0 0 0 0 0 0 0 0 0 0 0 0 0 0 0 0 0 0 0 0 0 0 0 0 0 0 0 0 0 0 0 0 0 0
0 0 0 0 0 0 0 0 0 0 0 0 0 0 0 0 0 0 0 0 0 0 0 0 0 0 0 0 0 0 0 0 0 0 0 0 0 0 0 0 0 0 0
0 0 0 0 0 0 0 0 0 0 0 0 0 0 0 0 0 0 0 0 0 0 0 0 0 0 0 0 0 0 0 0 0 0 0 0 0 0 0 0 0 0 0
Wind_Speed
3 3 4 4 4 5 5 5 6 6 6 7 7 7 7 7 8 7 7 7 8 8 8 9 9 9 7 7 7 7 8 8 10 9 8 8 10 9 9 9 9 9 8
3 4 4 4 5 5 6 6 6 7 7 7 7 7 7 7 8 8 8 8 8 9 10 10 10 8 9 8 8 9 8 9 9 11 9 8 10 10 10 10 8 7 8
3 4 5 5 5 6 6 6 7 7 7 7 8 8 8 8 8 8 8 8 9 10 10 10 10 10 10 8 9 9 8 8 9 9 10 8 8 8 9 9 10 8 8
4 5 5 5 6 6 6 7 7 7 8 8 8 8 9 9 9 9 9 9 9 10 10 10 10 10 11 10 9 10 9 9 9 9 9 8 8 8 8 8 7 7 6
4 5 5 6 6 6 7 7 7 7 8 8 8 9 9 8 8 9 9 9 10 11 10 10 10 11 13 12 10 9 9 9 8 9 9 8 8 7 8 7 7 6 7
5 5 5 6 6 7 7 7 8 8 8 8 9 9 9 8 11 14 12 10 10 11 11 11 11 12 13 16 17 16 15 12 11 10 10 10 11 10 9 7 7 7 7
5 5 6 6 7 7 7 7 8 8 8 9 9 9 10 10 13 15 15 11 11 10 11 11 9 9 12 11 13 15 16 17 17 13 13 12 11 10 10 10 9 9 8
5 6 6 6 7 7 7 8 8 8 8 8 9 10 10 10 13 15 15 12 11 11 11 11 11 11 10 11 11 12 12 13 14 12 12 12 12 11 11 10 10 10 9
6 6 6 7 7 8 8 8 8 8 8 8 9 9 10 11 13 14 14 9 9 11 11 11 11 11 13 15 12 12 12 11 13 16 17 16 17 17 14 8 8 8 8
6 7 7 7 8 8 8 8 8 8 8 9 9 9 10 10 12 14 14 8 9 9 9 10 12 13 14 14 11 11 12 11 10 11 12 13 13 13 14 11 9 8 7
7 7 7 7 8 8 8 8 8 8 8 8 9 9 9 10 11 13 13 8 8 8 8 8 8 13 15 15 14 11 12 12 10 10 9 9 9 8 9 9 9 8 8
7 7 8 8 7 7 8 8 7 8 8 8 8 8 7 8 9 11 13 13 12 9 9 8 9 13 15 15 12 12 15 13 8 7 7 8 7 7 7 7 8 9 9
7 7 7 8 7 7 7 7 7 6 6 6 7 7 7 6 7 12 13 14 14 10 9 12 14 14 14 11 13 14 12 8 7 7 7 7 7 7 6 6 6 7 8
7 7 7 7 7 7 6 6 6 6 6 6 7 7 7 7 7 6 7 8 10 10 8 10 12 12 10 10 10 8 7 7 7 7 7 6 6 5 5 5 5 4 4
7 7 7 6 7 6 6 6 7 7 7 8 7 7 8 8 8 12 10 8 7 8 8 6 6 6 5 5 6 5 5 5 6 6 6 6 6 5 5 5 4 4 5
6 6 6 5 6 6 6 6 8 9 12 13 13 12 10 12 14 15 15 14 13 12 8 6 6 5 5 5 6 5 5 5 6 6 6 5 6 5 5 4 4 5 5
7 7 6 6 6 6 6 6 7 8 10 11 12 13 13 14 15 15 14 13 11 10 6 5 6 6 5 5 6 6 6 6 6 6 5 5 5 5 5 5 4 5 5
7 7 7 6 6 6 6 6 6 7 7 7 8 12 14 14 14 14 12 10 6 5 5 5 6 6 6 6 6 6 6 6 6 6 5 5 5 5 5 5 5 5 5
6 5 5 6 6 6 6 6 6 7 7 7 7 8 11 12 13 12 9 5 6 6 5 6 6 6 6 6 6 6 7 6 6 6 6 6 5 5 5 5 5 7 6
5 8 8 6 6 6 6 6 6 6 7 7 7 7 7 8 7 6 5 5 5 6 6 6 6 6 6 7 7 6 7 6 6 6 6 6 5 5 5 6 5 5 5
6 6 9 7 6 6 6 6 6 6 6 7 7 8 12 8 7 7 6 6 6 6 6 6 6 6 6 6 6 7 8 7 6 6 6 6 6 5 5 5 5 5 5
5 6 6 6 6 6 6 6 6 6 7 8 7 8 11 7 6 6 6 6 6 6 6 6 6 6 6 6 7 7 7 7 7 6 6 6 6 5 5 5 5 5 5
6 6 6 6 6 8 7 6 6 6 7 7 7 7 7 6 6 6 7 7 7 6 6 6 7 7 7 6 7 7 7 8 7 7 7 6 6 5 5 5 6 6 5
5 6 6 6 6 6 6 6 6 6 7 7 7 7 7 7 7 7 7 7 7 7 7 7 7 9 11 9 7 7 7 8 8 7 8 7 7 6 5 5 5 5 4
5 6 6 6 6 6 6 6 6 7 7 7 7 7 7 7 7 8 7 7 8 8 9 9 7 8 10 11 10 9 11 13 12 8 7 6 7 7 6 5 4 4 3
5 6 5 5 5 6 6 6 6 7 7 7 7 7 7 7 8 8 8 7 7 8 8 8 9 11 12 10 11 13 14 14 14 13 8 5 5 5 4 4 4 3 3
Wind_Direction
264 271 276 281 285 285 284 288 293 294 295 295 297 297 296 295 293 283 280 283 278 276 275 273 269 266 263 260 260 256 257 259 265 271 269 270 268 271 275 268 265 263 260
265 271 277 282 282 281 284 287 290 291 291 292 290 288 287 288 288 284 279 279 280 277 274 273 270 266 263 261 258 256 257 259 263 271 272 269 266 265 270 266 265 261 261
266 270 275 278 280 282 287 291 292 291 290 289 287 286 287 287 287 285 281 280 279 279 277 273 273 267 264 263 260 258 258 260 261 265 269 268 266 262 268 265 261 259 262
267 270 273 278 282 285 288 290 289 289 289 289 287 286 286 285 285 284 281 280 280 279 276 275 274 270 267 266 263 261 261 260 259 261 265 265 264 262 262 260 258 255 260
267 270 275 282 284 285 287 288 288 287 287 288 286 286 284 283 282 286 285 282 281 280 278 275 273 272 272 267 264 263 262 260 260 261 262 265 263 260 258 259 258 259 262
271 275 282 284 284 285 288 288 287 287 287 287 285 284 283 281 286 288 289 287 284 282 281 280 277 272 270 269 266 265 264 261 260 263 263 260 263 263 262 259 258 257 263
276 280 285 287 287 289 289 287 286 287 287 286 285 283 282 284 288 289 289 288 283 280 280 279 277 275 275 271 268 267 265 264 260 261 263 262 265 268 266 260 256 259 263
280 283 287 290 290 291 289 287 288 288 286 285 285 284 284 286 289 291 292 285 280 278 278 279 278 277 273 273 269 267 264 262 260 257 260 265 265 264 262 259 263 268 269
287 291 293 292 291 291 291 291 292 290 288 287 285 285 285 288 291 293 291 286 280 280 280 279 277 276 277 277 272 267 268 266 265 264 266 268 269 267 265 259 251 251 258
296 297 296 293 290 290 290 292 293 291 288 289 287 286 285 288 291 292 292 284 282 283 282 279 274 274 278 277 274 270 268 269 270 270 267 267 267 265 258 248 244 244 253
301 298 295 292 290 288 289 289 290 290 289 287 286 286 285 287 289 290 291 286 285 285 284 282 278 278 279 281 280 275 274 278 274 270 267 266 266 261 252 244 241 239 243
304 299 297 295 292 289 289 290 289 289 289 288 288 289 288 290 290 289 291 290 291 285 284 285 285 284 284 284 282 278 282 282 272 266 264 265 265 263 258 252 253 252 248
303 300 299 298 294 291 290 290 290 287 287 289 289 289 292 294 295 293 292 292 291 288 284 288 292 294 290 283 279 282 282 274 268 265 265 267 268 266 267 260 258 258 258
300 300 299 297 297 296 292 288 288 289 288 289 291 293 294 294 294 296 290 289 290 288 288 290 291 290 287 287 287 281 273 272 272 269 270 275 274 267 262 257 255 253 259
298 297 298 296 297 296 291 288 289 283 286 291 292 293 295 295 300 305 305 300 297 295 299 293 292 290 286 284 283 283 282 283 281 277 273 273 272 264 266 264 260 257 253
297 299 298 298 297 295 295 295 290 289 295 296 296 298 296 298 304 305 306 306 307 309 303 291 290 291 290 290 292 291 288 286 286 285 279 274 274 269 269 270 260 257 257
294 297 297 297 296 296 296 298 301 301 299 301 303 306 308 308 308 308 307 307 306 307 295 289 289 290 289 289 290 289 287 288 286 283 282 279 278 275 272 269 265 265 262
294 295 296 295 295 293 293 294 295 301 305 305 306 309 313 314 313 312 310 310 300 296 291 290 289 291 290 288 288 288 288 287 284 283 283 281 278 276 271 266 263 268 271
297 296 297 296 295 294 294 293 293 295 296 301 306 308 314 314 312 313 316 306 300 297 294 291 290 291 291 290 287 287 287 285 286 286 284 283 277 274 273 272 270 270 271
292 298 303 299 297 298 298 296 295 296 299 300 304 310 315 312 308 311 310 303 299 296 296 294 292 291 290 290 288 285 284 284 285 282 282 282 277 271 272 274 272 271 271
295 297 301 300 298 299 299 300 301 301 302 302 302 307 313 310 308 307 305 302 298 296 296 294 291 290 288 289 288 287 286 284 283 282 281 279 277 274 271 272 274 270 269
294 296 298 299 299 301 302 302 302 303 302 303 305 309 314 311 307 305 305 304 301 298 297 295 291 288 286 285 285 285 283 282 281 279 277 276 274 273 271 269 270 268 261
294 298 301 302 302 304 306 305 304 304 305 307 307 308 310 310 309 308 307 307 307 304 300 295 292 290 287 284 281 279 278 278 278 277 277 276 275 275 271 270 270 267 259
298 300 301 302 303 303 304 306 307 306 306 307 308 309 310 309 308 307 307 306 306 305 303 299 293 292 291 289 285 281 276 278 279 274 269 267 268 268 267 266 265 261 251
302 302 302 302 303 304 304 305 306 307 307 307 308 308 308 308 307 307 307 305 305 303 303 302 298 297 295 293 290 288 285 286 285 282 271 262 260 260 261 263 261 262 256
303 302 302 302 302 303 304 304 306 308 307 306 305 305 305 305 305 305 305 305 305 304 303 301 302 303 304 299 293 291 292 292 290 288 280 266 260 258 261 257 256 254 248